St. Petersburg Airport, FL

8:53 PM EST on December 15, 2017 (GMT -0500)
Saint Petersburg-Clearwater International

Weather History for KPIE - January, 2014

Change the Weather History Date:

Friday, January 3, 2014

  Actual Average Record
Temperature  
Mean Temperature 51 °F -  
Max Temperature 57 °F 71 °F 82 °F (1973)
Min Temperature 45 °F 56 °F 30 °F (2008)
Degree Days  
Heating Degree Days 14    
Growing Degree Days 1 (Base 50)    
Moisture  
Dew Point 34 °F    
Average Humidity 57    
Maximum Humidity 78    
Minimum Humidity 43    
Precipitation  
Precipitation 0.00 in - - ()
Sea Level Pressure  
Sea Level Pressure 30.17 in    
Wind  
Wind Speed 19 mph (NNE)    
Max Wind Speed 28 mph    
Max Gust Speed 39 mph    
Visibility 10 miles    
Events      
Averages and records for this station are not official NWS values.
T = Trace of Precipitation, MM = Missing Value Source: NWS Daily Summary

Daily Weather History Graph

Daily Weather History Graph

Search for Another Location

Airport or City:

Trip Planner

Search our weather history database for the weather conditions in past years. The results will help you decide how hot, cold, wet, or windy it might be!

Date:

Astronomy

Jan. 03, 2014 Rise Set
Actual Time 7:22 AM EST 5:48 PM EST
Civil Twilight 6:56 AM EST 6:13 PM EST
Nautical Twilight 6:27 AM EST 6:43 PM EST
Astronomical Twilight 5:59 AM EST 7:11 PM EST
Moon 9:02 AM EST (1/3) 8:39 PM EST (1/3)
Length of Visible Light 11h 17m
Length of Day
10h 25m
Waxing Crescent, 8% of the Moon is Illuminated
Jan 3
Waxing Crescent
Jan 7
First Quarter
Jan 15
Full
Jan 24
Last Quarter
Jan 30
New

Hourly Weather History & Observations

Time (EST) Temp. Windchill Dew Point Humidity Pressure Visibility Wind Dir Wind Speed Gust Speed Precip Events Conditions
12:53 AM 57.9 °F - 51.1 °F 78% 30.01 in 10.0 mi NNW 25.3 mph 33.4 mph N/A   Mostly Cloudy
1:06 AM 57.9 °F - 50.0 °F 75% 30.03 in 10.0 mi NNW 19.6 mph 32.2 mph N/A   Mostly Cloudy
1:22 AM 57.0 °F - 50.0 °F 77% 30.04 in 10.0 mi NNW 26.5 mph 34.5 mph N/A   Scattered Clouds
1:53 AM 55.0 °F - 46.0 °F 72% 30.04 in 10.0 mi NNW 27.6 mph 39.1 mph N/A   Partly Cloudy
2:53 AM 53.1 °F - 41.0 °F 64% 30.06 in 10.0 mi North 27.6 mph 36.8 mph N/A   Clear
3:53 AM 52.0 °F - 33.1 °F 49% 30.08 in 10.0 mi North 20.7 mph 29.9 mph N/A   Clear
4:53 AM 51.1 °F - 30.9 °F 46% 30.09 in 10.0 mi North 18.4 mph 26.5 mph N/A   Clear
5:53 AM 50.0 °F - 30.9 °F 48% 30.11 in 10.0 mi North 19.6 mph 25.3 mph N/A   Clear
6:53 AM 48.0 °F - 32.0 °F 54% 30.13 in 10.0 mi North 15.0 mph 21.9 mph N/A   Clear
7:53 AM 46.0 °F 39.3 °F 30.9 °F 56% 30.17 in 10.0 mi North 16.1 mph 24.2 mph N/A   Clear
8:53 AM 45.0 °F 37.9 °F 27.0 °F 49% 30.20 in 10.0 mi North 16.1 mph 25.3 mph N/A   Clear
9:53 AM 46.0 °F 38.5 °F 25.0 °F 44% 30.22 in 10.0 mi NNE 19.6 mph 26.5 mph N/A   Clear
10:53 AM 46.9 °F - 26.1 °F 44% 30.22 in 10.0 mi North 12.7 mph 19.6 mph N/A   Clear
11:53 AM 48.0 °F - 28.0 °F 46% 30.22 in 10.0 mi NE 11.5 mph 19.6 mph N/A   Clear
12:53 PM 50.0 °F - 28.9 °F 44% 30.18 in 10.0 mi NNE 10.4 mph - N/A   Clear
1:53 PM 50.0 °F - 28.9 °F 44% 30.17 in 10.0 mi NE 10.4 mph 17.3 mph N/A   Clear
2:53 PM 50.0 °F - 30.9 °F 48% 30.18 in 10.0 mi ENE 8.1 mph - N/A   Clear
3:53 PM 48.9 °F - 27.0 °F 43% 30.21 in 10.0 mi NE 10.4 mph 17.3 mph 0.00 in   Clear
4:53 PM 48.9 °F - 30.0 °F 48% 30.21 in 10.0 mi ENE 10.4 mph - N/A   Clear
5:53 PM 48.0 °F - 30.9 °F 52% 30.24 in 10.0 mi ENE 15.0 mph 20.7 mph N/A   Clear
6:53 PM 48.0 °F - 30.9 °F 52% 30.26 in 10.0 mi ENE 15.0 mph 21.9 mph N/A   Clear
7:53 PM 46.9 °F - 35.1 °F 63% 30.28 in 10.0 mi NE 15.0 mph 24.2 mph N/A   Clear
8:53 PM 46.0 °F 40.2 °F 35.1 °F 66% 30.29 in 10.0 mi NE 12.7 mph - N/A   Clear
9:53 PM 45.0 °F 38.5 °F 36.0 °F 71% 30.29 in 10.0 mi NE 13.8 mph - N/A   Clear
10:53 PM 45.0 °F 39.7 °F 36.0 °F 71% 30.28 in 10.0 mi NE 10.4 mph - N/A   Clear
11:53 PM 45.0 °F 40.1 °F 36.0 °F 71% 30.28 in 10.0 mi NE 9.2 mph - N/A   Clear